Back to catalog

STARLINK-31941

AliveCommunicationsVLEO
NORAD 59866·PAYLOAD·🇺🇸 United States

Launched May 24, 2024 from Cape Canaveral Space Force Station

Loading…

Next Passes (next 24 hours)

TLE

FreshSource: CelesTrak SupGP

Epoch: Sep 14, 2026, 21:33 UTC

1 59866C 24098J   26257.89840278  .00027410  00000+0  99310-3 0  2570
2 59866  43.0029 271.6990 0001451 266.3441 110.3313 15.27554316    17

Track STARLINK-31941 in real time with AllMySat

Download on the App Store